Tabellarische Ansicht des 6.2.2012


Die einzelnen Werte des Tages

Uhrzeit Temperatur Luftdruck Luftfeuchte Wind Hi-Wind Taupunkt THW Index Wind Chill Heat Index Solar- strahlung Regen

00:00

-9.8 C

1033.5 hpa

74 %

4.8 km/h aus 116

11.3 km/h aus E

-13.5 C

-12.7 C

-12.6 C

-9.9 C

0 W/m

0.00 mm

00:05

-9.8 C

1033.5 hpa

74 %

4.8 km/h aus 69

9.7 km/h aus ESE

-13.5 C

-12.7 C

-12.6 C

-9.9 C

0 W/m

0.00 mm

00:10

-9.8 C

1033.5 hpa

74 %

4.8 km/h aus 116

11.3 km/h aus ESE

-13.6 C

-12.7 C

-12.6 C

-9.9 C

0 W/m

0.00 mm

00:15

-9.8 C

1033.4 hpa

74 %

4.8 km/h aus 115

11.3 km/h aus ESE

-13.6 C

-12.7 C

-12.6 C

-9.9 C

0 W/m

0.00 mm

00:20

-9.8 C

1033.4 hpa

74 %

6.4 km/h aus 116

9.7 km/h aus E

-13.6 C

-13.7 C

-13.6 C

-9.9 C

0 W/m

0.00 mm

00:25

-9.9 C

1033.4 hpa

74 %

4.8 km/h aus 117

9.7 km/h aus E

-13.7 C

-12.8 C

-12.7 C

-10.1 C

0 W/m

0.00 mm

00:30

-10.0 C

1033.4 hpa

74 %

6.4 km/h aus 117

9.7 km/h aus ESE

-13.8 C

-13.8 C

-13.7 C

-10.1 C

0 W/m

0.00 mm

00:35

-10.0 C

1033.4 hpa

74 %

4.8 km/h aus 117

9.7 km/h aus E

-13.8 C

-12.9 C

-12.8 C

-10.1 C

0 W/m

0.00 mm

00:40

-9.9 C

1033.4 hpa

74 %

8.0 km/h aus 116

16.1 km/h aus E

-13.7 C

-14.5 C

-14.4 C

-10.1 C

0 W/m

0.00 mm

00:45

-10.0 C

1033.4 hpa

74 %

4.8 km/h aus 116

11.3 km/h aus ENE

-13.8 C

-12.9 C

-12.8 C

-10.1 C

0 W/m

0.00 mm

00:50

-10.0 C

1033.4 hpa

74 %

6.4 km/h aus 117

17.7 km/h aus E

-13.8 C

-13.8 C

-13.7 C

-10.1 C

0 W/m

0.00 mm

00:55

-10.0 C

1033.4 hpa

74 %

6.4 km/h aus 117

16.1 km/h aus ENE

-13.8 C

-13.8 C

-13.7 C

-10.1 C

0 W/m

0.00 mm

01:00

-10.0 C

1033.4 hpa

74 %

4.8 km/h aus 117

11.3 km/h aus ESE

-13.8 C

-12.9 C

-12.8 C

-10.1 C

0 W/m

0.00 mm

01:05

-10.0 C

1033.4 hpa

74 %

4.8 km/h aus 117

11.3 km/h aus E

-13.8 C

-12.9 C

-12.8 C

-10.1 C

0 W/m

0.00 mm

01:10

-10.1 C

1033.4 hpa

74 %

4.8 km/h aus 117

11.3 km/h aus ESE

-13.8 C

-13.0 C

-12.9 C

-10.2 C

0 W/m

0.00 mm

01:15

-10.1 C

1033.4 hpa

74 %

4.8 km/h aus 116

11.3 km/h aus ESE

-13.9 C

-13.1 C

-12.9 C

-10.2 C

0 W/m

0.00 mm

01:20

-10.2 C

1033.4 hpa

74 %

4.8 km/h aus 117

11.3 km/h aus E

-13.9 C

-13.1 C

-13.0 C

-10.3 C

0 W/m

0.00 mm

01:25

-10.2 C

1033.4 hpa

74 %

3.2 km/h aus 115

8.0 km/h aus SE

-14.0 C

-11.9 C

-11.8 C

-10.3 C

0 W/m

0.00 mm

01:30

-10.3 C

1033.6 hpa

74 %

6.4 km/h aus 117

11.3 km/h aus E

-14.0 C

-14.2 C

-14.1 C

-10.4 C

0 W/m

0.00 mm

01:35

-10.3 C

1033.6 hpa

74 %

4.8 km/h aus 117

9.7 km/h aus ESE

-14.1 C

-13.3 C

-13.2 C

-10.4 C

0 W/m

0.00 mm

01:40

-10.3 C

1033.6 hpa

75 %

6.4 km/h aus 118

11.3 km/h aus E

-13.9 C

-14.2 C

-14.1 C

-10.4 C

0 W/m

0.00 mm

01:45

-10.3 C

1033.5 hpa

75 %

8.0 km/h aus 117

12.9 km/h aus ESE

-13.9 C

-15.0 C

-14.9 C

-10.4 C

0 W/m

0.00 mm

01:50

-10.3 C

1033.5 hpa

75 %

6.4 km/h aus 116

12.9 km/h aus SE

-13.9 C

-14.2 C

-14.1 C

-10.4 C

0 W/m

0.00 mm

01:55

-10.4 C

1033.5 hpa

75 %

6.4 km/h aus 117

17.7 km/h aus ESE

-14.0 C

-14.3 C

-14.2 C

-10.5 C

0 W/m

0.00 mm

02:00

-10.4 C

1033.5 hpa

75 %

4.8 km/h aus 116

9.7 km/h aus ENE

-14.0 C

-13.4 C

-13.3 C

-10.6 C

0 W/m

0.00 mm

02:05

-10.4 C

1033.5 hpa

75 %

4.8 km/h aus 117

11.3 km/h aus E

-14.0 C

-13.4 C

-13.3 C

-10.6 C

0 W/m

0.00 mm

02:10

-10.4 C

1033.5 hpa

75 %

4.8 km/h aus 117

9.7 km/h aus ESE

-14.0 C

-13.4 C

-13.3 C

-10.6 C

0 W/m

0.00 mm

02:15

-10.5 C

1033.4 hpa

75 %

3.2 km/h aus 117

8.0 km/h aus ESE

-14.1 C

-12.2 C

-12.1 C

-10.6 C

0 W/m

0.00 mm

02:20

-10.6 C

1033.4 hpa

75 %

4.8 km/h aus 117

11.3 km/h aus ESE

-14.1 C

-13.6 C

-13.4 C

-10.7 C

0 W/m

0.00 mm

02:25

-10.6 C

1033.4 hpa

76 %

4.8 km/h aus 117

14.5 km/h aus E

-14.0 C

-13.6 C

-13.5 C

-10.7 C

0 W/m

0.00 mm

02:30

-10.7 C

1033.5 hpa

76 %

4.8 km/h aus 116

8.0 km/h aus E

-14.1 C

-13.7 C

-13.6 C

-10.8 C

0 W/m

0.00 mm

02:35

-10.7 C

1033.5 hpa

76 %

3.2 km/h aus 116

8.0 km/h aus ESE

-14.1 C

-12.4 C

-12.3 C

-10.8 C

0 W/m

0.00 mm

02:40

-10.8 C

1033.5 hpa

76 %

3.2 km/h aus 116

8.0 km/h aus E

-14.2 C

-12.6 C

-12.4 C

-10.9 C

0 W/m

0.00 mm

02:45

-10.8 C

1033.6 hpa

76 %

3.2 km/h aus 118

8.0 km/h aus E

-14.2 C

-12.6 C

-12.5 C

-10.9 C

0 W/m

0.00 mm

02:50

-10.9 C

1033.6 hpa

76 %

3.2 km/h aus 117

9.7 km/h aus ESE

-14.3 C

-12.7 C

-12.6 C

-11.0 C

0 W/m

0.00 mm

02:55

-10.9 C

1033.6 hpa

76 %

3.2 km/h aus 116

8.0 km/h aus ESE

-14.3 C

-12.7 C

-12.6 C

-11.0 C

0 W/m

0.00 mm

03:00

-11.0 C

1033.6 hpa

76 %

1.6 km/h aus 117

4.8 km/h aus ESE

-14.4 C

-11.1 C

-11.0 C

-11.1 C

0 W/m

0.00 mm

03:05

-11.0 C

1033.6 hpa

76 %

0.0 km/h aus 117

3.2 km/h aus ESE

-14.4 C

-11.1 C

-11.0 C

-11.1 C

0 W/m

0.00 mm

03:10

-11.1 C

1033.6 hpa

76 %

0.0 km/h aus 116

4.8 km/h aus ESE

-14.5 C

-11.2 C

-11.1 C

-11.2 C

0 W/m

0.00 mm

03:15

-11.2 C

1033.6 hpa

76 %

1.6 km/h aus 116

6.4 km/h aus ESE

-14.6 C

-11.3 C

-11.2 C

-11.3 C

0 W/m

0.00 mm

03:20

-11.2 C

1033.6 hpa

76 %

1.6 km/h aus 117

4.8 km/h aus ESE

-14.6 C

-11.3 C

-11.2 C

-11.3 C

0 W/m

0.00 mm

03:25

-11.3 C

1033.6 hpa

76 %

0.0 km/h aus 117

3.2 km/h aus ESE

-14.7 C

-11.4 C

-11.3 C

-11.4 C

0 W/m

0.00 mm

03:30

-11.3 C

1033.7 hpa

76 %

0.0 km/h aus 116

3.2 km/h aus ESE

-14.7 C

-11.4 C

-11.3 C

-11.4 C

0 W/m

0.00 mm

03:35

-11.4 C

1033.7 hpa

76 %

0.0 km/h aus 117

1.6 km/h aus ESE

-14.8 C

-11.6 C

-11.4 C

-11.6 C

0 W/m

0.00 mm

03:40

-11.5 C

1033.7 hpa

76 %

0.0 km/h aus 116

3.2 km/h aus ESE

-14.9 C

-11.6 C

-11.5 C

-11.6 C

0 W/m

0.00 mm

03:45

-11.6 C

1033.6 hpa

76 %

0.0 km/h aus 116

3.2 km/h aus ESE

-15.0 C

-11.7 C

-11.6 C

-11.7 C

0 W/m

0.00 mm

03:50

-11.7 C

1033.6 hpa

76 %

1.6 km/h aus 116

4.8 km/h aus ESE

-15.1 C

-11.8 C

-11.7 C

-11.8 C

0 W/m

0.00 mm

03:55

-11.8 C

1033.6 hpa

76 %

1.6 km/h aus 118

4.8 km/h aus ESE

-15.2 C

-11.9 C

-11.8 C

-11.9 C

0 W/m

0.00 mm

04:00

-11.9 C

1033.5 hpa

77 %

1.6 km/h aus 117

3.2 km/h aus ESE

-15.2 C

-12.1 C

-11.9 C

-12.1 C

0 W/m

0.00 mm

04:05

-12.1 C

1033.5 hpa

77 %

1.6 km/h aus 117

4.8 km/h aus ESE

-15.3 C

-12.2 C

-12.1 C

-12.2 C

0 W/m

0.00 mm

04:10

-12.1 C

1033.5 hpa

77 %

1.6 km/h aus 116

6.4 km/h aus ESE

-15.3 C

-12.2 C

-12.1 C

-12.2 C

0 W/m

0.00 mm

04:15

-12.2 C

1033.6 hpa

77 %

0.0 km/h aus 115

3.2 km/h aus ESE

-15.4 C

-12.3 C

-12.2 C

-12.3 C

0 W/m

0.00 mm

04:20

-12.2 C

1033.6 hpa

78 %

1.6 km/h aus 116

3.2 km/h aus ESE

-15.3 C

-12.3 C

-12.2 C

-12.3 C

0 W/m

0.00 mm

04:25

-12.3 C

1033.6 hpa

78 %

0.0 km/h aus 116

4.8 km/h aus ESE

-15.3 C

-12.3 C

-12.3 C

-12.3 C

0 W/m

0.00 mm

04:30

-12.3 C

1033.5 hpa

78 %

0.0 km/h aus 116

3.2 km/h aus ESE

-15.3 C

-12.3 C

-12.3 C

-12.3 C

0 W/m

0.00 mm

04:35

-12.3 C

1033.5 hpa

78 %

0.0 km/h aus 117

3.2 km/h aus ESE

-15.4 C

-12.4 C

-12.3 C

-12.4 C

0 W/m

0.00 mm

04:40

-12.4 C

1033.5 hpa

78 %

0.0 km/h aus 117

1.6 km/h aus ESE

-15.4 C

-12.4 C

-12.4 C

-12.4 C

0 W/m

0.00 mm

04:45

-12.4 C

1033.5 hpa

78 %

0.0 km/h aus 117

0.0 km/h aus ---

-15.5 C

-12.5 C

-12.4 C

-12.5 C

0 W/m

0.00 mm

04:50

-12.6 C

1033.5 hpa

78 %

0.0 km/h aus 117

0.0 km/h aus ---

-15.6 C

-12.6 C

-12.6 C

-12.6 C

0 W/m

0.00 mm

04:55

-12.7 C

1033.5 hpa

78 %

0.0 km/h aus 117

1.6 km/h aus ESE

-15.7 C

-12.7 C

-12.7 C

-12.7 C

0 W/m

0.00 mm

05:00

-12.8 C

1033.6 hpa

78 %

0.0 km/h aus 117

3.2 km/h aus ESE

-15.8 C

-12.8 C

-12.8 C

-12.8 C

0 W/m

0.00 mm

05:05

-12.9 C

1033.6 hpa

78 %

0.0 km/h aus 117

3.2 km/h aus ESE

-16.0 C

-13.0 C

-12.9 C

-13.0 C

0 W/m

0.00 mm

05:10

-13.1 C

1033.6 hpa

78 %

0.0 km/h aus 117

3.2 km/h aus ESE

-16.1 C

-13.1 C

-13.1 C

-13.1 C

0 W/m

0.00 mm

05:15

-13.2 C

1033.7 hpa

78 %

0.0 km/h aus 116

1.6 km/h aus ESE

-16.2 C

-13.2 C

-13.2 C

-13.2 C

0 W/m

0.00 mm

05:20

-13.3 C

1033.7 hpa

78 %

0.0 km/h aus 117

1.6 km/h aus ESE

-16.3 C

-13.3 C

-13.3 C

-13.3 C

0 W/m

0.00 mm

05:25

-13.3 C

1033.7 hpa

78 %

0.0 km/h aus 116

1.6 km/h aus ESE

-16.4 C

-13.4 C

-13.3 C

-13.4 C

0 W/m

0.00 mm

05:30

-13.4 C

1033.7 hpa

79 %

0.0 km/h aus 117

3.2 km/h aus ESE

-16.3 C

-13.5 C

-13.4 C

-13.5 C

0 W/m

0.00 mm

05:35

-13.5 C

1033.7 hpa

79 %

0.0 km/h aus 115

3.2 km/h aus ESE

-16.4 C

-13.6 C

-13.5 C

-13.6 C

0 W/m

0.00 mm

05:40

-13.6 C

1033.7 hpa

79 %

0.0 km/h aus 117

1.6 km/h aus ESE

-16.5 C

-13.7 C

-13.6 C

-13.7 C

0 W/m

0.00 mm

05:45

-13.7 C

1033.7 hpa

79 %

0.0 km/h aus 116

0.0 km/h aus ---

-16.5 C

-13.7 C

-13.7 C

-13.7 C

0 W/m

0.00 mm

05:50

-13.7 C

1033.7 hpa

79 %

0.0 km/h aus 117

0.0 km/h aus ---

-16.6 C

-13.8 C

-13.7 C

-13.8 C

0 W/m

0.00 mm

05:55

-13.8 C

1033.7 hpa

79 %

0.0 km/h aus 116

0.0 km/h aus ---

-16.6 C

-13.8 C

-13.8 C

-13.8 C

0 W/m

0.00 mm

06:00

-13.8 C

1033.7 hpa

79 %

0.0 km/h aus 117

0.0 km/h aus ---

-16.7 C

-13.9 C

-13.8 C

-13.9 C

0 W/m

0.00 mm

06:05

-13.8 C

1033.7 hpa

80 %

1.6 km/h aus 116

3.2 km/h aus ESE

-16.5 C

-13.9 C

-13.8 C

-13.9 C

0 W/m

0.00 mm

06:10

-13.9 C

1033.7 hpa

80 %

1.6 km/h aus 118

3.2 km/h aus ESE

-16.6 C

-14.0 C

-13.9 C

-14.0 C

0 W/m

0.00 mm

06:15

-14.0 C

1033.7 hpa

80 %

1.6 km/h aus 117

3.2 km/h aus ESE

-16.7 C

-14.1 C

-14.0 C

-14.1 C

0 W/m

0.00 mm

06:20

-14.1 C

1033.7 hpa

80 %

0.0 km/h aus 117

3.2 km/h aus ESE

-16.8 C

-14.1 C

-14.1 C

-14.1 C

0 W/m

0.00 mm

06:25

-14.1 C

1033.7 hpa

80 %

0.0 km/h aus 116

3.2 km/h aus ESE

-16.8 C

-14.2 C

-14.1 C

-14.2 C

0 W/m

0.00 mm

06:30

-14.2 C

1033.7 hpa

80 %

0.0 km/h aus 117

0.0 km/h aus ---

-16.9 C

-14.2 C

-14.2 C

-14.2 C

0 W/m

0.00 mm

06:35

-14.2 C

1033.7 hpa

80 %

0.0 km/h aus 117

1.6 km/h aus ESE

-16.9 C

-14.3 C

-14.2 C

-14.3 C

0 W/m

0.00 mm

06:40

-14.3 C

1033.7 hpa

80 %

0.0 km/h aus 116

3.2 km/h aus ESE

-17.0 C

-14.4 C

-14.3 C

-14.4 C

0 W/m

0.00 mm

06:45

-14.4 C

1033.9 hpa

80 %

0.0 km/h aus 115

0.0 km/h aus ---

-17.1 C

-14.4 C

-14.4 C

-14.4 C

0 W/m

0.00 mm

06:50

-14.4 C

1033.9 hpa

80 %

0.0 km/h aus 117

1.6 km/h aus ESE

-17.1 C

-14.5 C

-14.4 C

-14.5 C

0 W/m

0.00 mm

06:55

-14.5 C

1033.9 hpa

80 %

0.0 km/h aus 117

0.0 km/h aus ---

-17.2 C

-14.6 C

-14.5 C

-14.6 C

0 W/m

0.00 mm

07:00

-14.6 C

1033.9 hpa

80 %

0.0 km/h aus 116

1.6 km/h aus ESE

-17.2 C

-14.6 C

-14.6 C

-14.6 C

0 W/m

0.00 mm

07:05

-14.6 C

1033.9 hpa

80 %

0.0 km/h aus 117

0.0 km/h aus ---

-17.3 C

-14.7 C

-14.6 C

-14.7 C

0 W/m

0.00 mm

07:10

-14.7 C

1033.9 hpa

80 %

0.0 km/h aus 117

0.0 km/h aus ---

-17.4 C

-14.7 C

-14.7 C

-14.7 C

0 W/m

0.00 mm

07:15

-14.7 C

1034.0 hpa

80 %

0.0 km/h aus 116

0.0 km/h aus ---

-17.4 C

-14.7 C

-14.7 C

-14.7 C

0 W/m

0.00 mm

07:20

-14.7 C

1034.0 hpa

81 %

0.0 km/h aus 118

3.2 km/h aus ESE

-17.3 C

-14.8 C

-14.7 C

-14.8 C

0 W/m

0.00 mm

07:25

-14.7 C

1034.0 hpa

81 %

1.6 km/h aus 116

3.2 km/h aus ESE

-17.3 C

-14.8 C

-14.7 C

-14.8 C

0 W/m

0.00 mm

07:30

-14.7 C

1034.2 hpa

81 %

1.6 km/h aus 117

3.2 km/h aus ESE

-17.3 C

-14.8 C

-14.7 C

-14.8 C

0 W/m

0.00 mm

07:35

-14.7 C

1034.2 hpa

81 %

1.6 km/h aus 117

4.8 km/h aus ESE

-17.3 C

-14.8 C

-14.7 C

-14.8 C

0 W/m

0.00 mm

07:40

-14.7 C

1034.2 hpa

81 %

1.6 km/h aus 116

4.8 km/h aus ESE

-17.3 C

-14.8 C

-14.7 C

-14.8 C

0 W/m

0.00 mm

07:45

-14.7 C

1034.2 hpa

82 %

1.6 km/h aus 116

4.8 km/h aus ESE

-17.1 C

-14.7 C

-14.7 C

-14.7 C

0 W/m

0.00 mm

07:50

-14.7 C

1034.2 hpa

82 %

1.6 km/h aus 116

4.8 km/h aus ESE

-17.1 C

-14.7 C

-14.7 C

-14.7 C

0 W/m

0.00 mm

07:55

-14.6 C

1034.2 hpa

82 %

0.0 km/h aus 117

3.2 km/h aus ESE

-17.0 C

-14.6 C

-14.6 C

-14.6 C

0 W/m

0.00 mm

08:00

-14.6 C

1034.2 hpa

82 %

1.6 km/h aus 116

4.8 km/h aus ESE

-17.0 C

-14.6 C

-14.6 C

-14.6 C

0 W/m

0.00 mm

08:05

-14.5 C

1034.2 hpa

82 %

1.6 km/h aus 116

4.8 km/h aus ESE

-16.9 C

-14.6 C

-14.5 C

-14.6 C

0 W/m

0.00 mm

08:10

-14.4 C

1034.2 hpa

83 %

0.0 km/h aus 117

3.2 km/h aus ESE

-16.7 C

-14.5 C

-14.4 C

-14.5 C

0 W/m

0.00 mm

08:15

-14.4 C

1034.3 hpa

83 %

0.0 km/h aus 117

3.2 km/h aus ESE

-16.6 C

-14.4 C

-14.4 C

-14.4 C

0 W/m

0.00 mm

08:20

-14.4 C

1034.3 hpa

83 %

0.0 km/h aus 117

3.2 km/h aus ESE

-16.6 C

-14.4 C

-14.4 C

-14.4 C

0 W/m

0.00 mm

08:25

-14.4 C

1034.3 hpa

83 %

1.6 km/h aus 117

4.8 km/h aus ESE

-16.6 C

-14.4 C

-14.4 C

-14.4 C

0 W/m

0.00 mm

08:30

-14.3 C

1034.2 hpa

83 %

1.6 km/h aus 117

8.0 km/h aus E

-16.6 C

-14.4 C

-14.3 C

-14.4 C

0 W/m

0.00 mm

08:35

-14.3 C

1034.2 hpa

83 %

1.6 km/h aus 117

4.8 km/h aus E

-16.5 C

-14.3 C

-14.3 C

-14.3 C

0 W/m

0.00 mm

08:40

-14.3 C

1034.2 hpa

83 %

1.6 km/h aus 117

4.8 km/h aus E

-16.5 C

-14.3 C

-14.3 C

-14.3 C

0 W/m

0.00 mm

08:45

-14.2 C

1034.2 hpa

84 %

1.6 km/h aus 116

4.8 km/h aus E

-16.3 C

-14.2 C

-14.2 C

-14.2 C

0 W/m

0.00 mm

08:50

-14.0 C

1034.2 hpa

84 %

3.2 km/h aus 116

8.0 km/h aus E

-16.1 C

-16.0 C

-15.9 C

-14.1 C

0 W/m

0.00 mm

08:55

-13.8 C

1034.2 hpa

84 %

3.2 km/h aus 117

8.0 km/h aus ENE

-16.0 C

-15.8 C

-15.8 C

-13.9 C

0 W/m

0.00 mm

09:00

-13.7 C

1034.4 hpa

84 %

4.8 km/h aus 117

8.0 km/h aus ENE

-15.8 C

-17.0 C

-16.9 C

-13.7 C

0 W/m

0.00 mm

09:05

-13.4 C

1034.4 hpa

84 %

3.2 km/h aus 117

6.4 km/h aus ENE

-15.6 C

-15.4 C

-15.3 C

-13.5 C

0 W/m

0.00 mm

09:10

-13.2 C

1034.4 hpa

85 %

1.6 km/h aus 116

4.8 km/h aus ENE

-15.2 C

-13.3 C

-13.2 C

-13.3 C

0 W/m

0.00 mm

09:15

-13.1 C

1034.4 hpa

85 %

1.6 km/h aus 116

6.4 km/h aus ENE

-15.0 C

-13.1 C

-13.1 C

-13.1 C

0 W/m

0.00 mm

09:20

-12.9 C

1034.4 hpa

85 %

0.0 km/h aus 117

3.2 km/h aus ENE

-14.9 C

-12.9 C

-12.9 C

-12.9 C

0 W/m

0.00 mm

09:25

-12.7 C

1034.4 hpa

85 %

0.0 km/h aus 117

3.2 km/h aus ENE

-14.7 C

-12.8 C

-12.7 C

-12.8 C

0 W/m

0.00 mm

09:30

-12.6 C

1034.3 hpa

85 %

3.2 km/h aus 117

6.4 km/h aus ENE

-14.6 C

-14.4 C

-14.4 C

-12.6 C

0 W/m

0.00 mm

09:35

-12.3 C

1034.3 hpa

85 %

3.2 km/h aus 118

6.4 km/h aus ENE

-14.3 C

-14.2 C

-14.1 C

-12.4 C

0 W/m

0.00 mm

09:40

-12.2 C

1034.3 hpa

85 %

3.2 km/h aus 116

6.4 km/h aus ENE

-14.2 C

-14.1 C

-14.0 C

-12.3 C

0 W/m

0.00 mm

09:45

-12.0 C

1034.5 hpa

85 %

1.6 km/h aus 117

4.8 km/h aus ENE

-14.0 C

-12.1 C

-12.0 C

-12.1 C

0 W/m

0.00 mm

09:50

-11.8 C

1034.5 hpa

85 %

0.0 km/h aus 117

3.2 km/h aus ENE

-13.8 C

-11.9 C

-11.8 C

-11.9 C

0 W/m

0.00 mm

09:55

-11.7 C

1034.5 hpa

86 %

1.6 km/h aus 116

6.4 km/h aus ENE

-13.5 C

-11.7 C

-11.7 C

-11.7 C

0 W/m

0.00 mm

10:00

-11.3 C

1034.6 hpa

86 %

3.2 km/h aus 117

6.4 km/h aus ENE

-13.2 C

-13.1 C

-13.1 C

-11.4 C

0 W/m

0.00 mm

10:05

-11.1 C

1034.6 hpa

86 %

3.2 km/h aus 116

9.7 km/h aus ENE

-13.0 C

-12.8 C

-12.8 C

-11.2 C

0 W/m

0.00 mm

10:10

-10.6 C

1034.6 hpa

86 %

1.6 km/h aus 117

8.0 km/h aus ENE

-12.5 C

-10.7 C

-10.6 C

-10.7 C

0 W/m

0.00 mm

10:15

-10.1 C

1034.7 hpa

85 %

4.8 km/h aus 117

9.7 km/h aus E

-12.2 C

-13.0 C

-12.9 C

-10.2 C

0 W/m

0.00 mm

10:20

-9.8 C

1034.7 hpa

84 %

4.8 km/h aus 116

9.7 km/h aus SE

-12.0 C

-12.7 C

-12.6 C

-9.9 C

0 W/m

0.00 mm

10:25

-9.5 C

1034.7 hpa

83 %

4.8 km/h aus 117

9.7 km/h aus E

-11.8 C

-12.3 C

-12.2 C

-9.6 C

0 W/m

0.00 mm

10:30

-9.3 C

1034.7 hpa

82 %

4.8 km/h aus 117

14.5 km/h aus ESE

-11.8 C

-12.1 C

-12.0 C

-9.4 C

0 W/m

0.00 mm

10:35

-9.2 C

1034.7 hpa

80 %

6.4 km/h aus 115

14.5 km/h aus E

-12.0 C

-12.9 C

-12.8 C

-9.3 C

0 W/m

0.00 mm

10:40

-9.1 C

1034.7 hpa

78 %

4.8 km/h aus 118

9.7 km/h aus E

-12.2 C

-11.8 C

-11.7 C

-9.2 C

0 W/m

0.00 mm

10:45

-9.0 C

1034.7 hpa

77 %

3.2 km/h aus 116

8.0 km/h aus E

-12.3 C

-10.6 C

-10.4 C

-9.1 C

0 W/m

0.00 mm

10:50

-8.8 C

1034.7 hpa

76 %

3.2 km/h aus 117

8.0 km/h aus E

-12.3 C

-10.4 C

-10.3 C

-8.9 C

0 W/m

0.00 mm

10:55

-8.8 C

1034.7 hpa

75 %

4.8 km/h aus 116

8.0 km/h aus E

-12.5 C

-11.6 C

-11.5 C

-8.9 C

0 W/m

0.00 mm

11:00

-8.6 C

1034.7 hpa

75 %

4.8 km/h aus 117

9.7 km/h aus SE

-12.2 C

-11.3 C

-11.2 C

-8.7 C

0 W/m

0.00 mm

11:05

-8.4 C

1034.7 hpa

74 %

4.8 km/h aus 114

8.0 km/h aus SE

-12.2 C

-11.1 C

-11.0 C

-8.5 C

0 W/m

0.00 mm

11:10

-8.2 C

1034.7 hpa

74 %

4.8 km/h aus 116

14.5 km/h aus ENE

-12.0 C

-10.8 C

-10.7 C

-8.3 C

0 W/m

0.00 mm

11:15

-8.1 C

1034.7 hpa

73 %

4.8 km/h aus 114

14.5 km/h aus ESE

-12.0 C

-10.8 C

-10.6 C

-8.2 C

0 W/m

0.00 mm

11:20

-8.1 C

1034.7 hpa

72 %

4.8 km/h aus 116

9.7 km/h aus ESE

-12.2 C

-10.8 C

-10.6 C

-8.2 C

0 W/m

0.00 mm

11:25

-8.0 C

1034.7 hpa

72 %

3.2 km/h aus 117

6.4 km/h aus ENE

-12.2 C

-9.6 C

-9.4 C

-8.2 C

0 W/m

0.00 mm

11:30

-7.9 C

1034.7 hpa

71 %

4.8 km/h aus 117

9.7 km/h aus E

-12.2 C

-10.6 C

-10.4 C

-8.1 C

0 W/m

0.00 mm

11:35

-7.9 C

1034.7 hpa

71 %

6.4 km/h aus 117

11.3 km/h aus ENE

-12.3 C

-11.5 C

-11.3 C

-8.1 C

0 W/m

0.00 mm

11:40

-7.6 C

1034.7 hpa

71 %

6.4 km/h aus 117

11.3 km/h aus ESE

-12.0 C

-11.1 C

-10.9 C

-7.8 C

0 W/m

0.00 mm

11:45

-7.6 C

1034.7 hpa

70 %

3.2 km/h aus 118

6.4 km/h aus ESE

-12.1 C

-9.1 C

-8.9 C

-7.8 C

0 W/m

0.00 mm

11:50

-7.3 C

1034.7 hpa

71 %

3.2 km/h aus 116

8.0 km/h aus ESE

-11.6 C

-8.7 C

-8.6 C

-7.4 C

0 W/m

0.00 mm

11:55

-7.4 C

1034.7 hpa

69 %

3.2 km/h aus 116

8.0 km/h aus E

-12.1 C

-8.8 C

-8.7 C

-7.6 C

0 W/m

0.00 mm

12:00

-7.3 C

1034.6 hpa

70 %

3.2 km/h aus 117

16.1 km/h aus E

-11.9 C

-8.8 C

-8.6 C

-7.5 C

0 W/m

0.00 mm

12:05

-7.2 C

1034.6 hpa

69 %

6.4 km/h aus 117

14.5 km/h aus SE

-11.9 C

-10.7 C

-10.5 C

-7.4 C

0 W/m

0.00 mm

12:10

-7.1 C

1034.6 hpa

69 %

3.2 km/h aus 117

11.3 km/h aus ENE

-11.8 C

-8.5 C

-8.3 C

-7.2 C

0 W/m

0.00 mm

12:15

-6.9 C

1034.5 hpa

69 %

3.2 km/h aus 117

9.7 km/h aus E

-11.7 C

-8.4 C

-8.2 C

-7.1 C

0 W/m

0.00 mm

12:20

-7.1 C

1034.5 hpa

68 %

3.2 km/h aus 117

9.7 km/h aus ESE

-12.0 C

-8.6 C

-8.4 C

-7.3 C

0 W/m

0.00 mm

12:25

-7.1 C

1034.5 hpa

67 %

4.8 km/h aus 117

9.7 km/h aus E

-12.2 C

-9.7 C

-9.4 C

-7.3 C

0 W/m

0.00 mm

12:30

-6.9 C

1034.3 hpa

66 %

6.4 km/h aus 117

11.3 km/h aus ESE

-12.2 C

-10.3 C

-10.1 C

-7.1 C

0 W/m

0.00 mm

12:35

-6.8 C

1034.3 hpa

65 %

6.4 km/h aus 116

14.5 km/h aus E

-12.3 C

-10.3 C

-10.1 C

-7.1 C

0 W/m

0.00 mm

12:40

-6.7 C

1034.3 hpa

63 %

8.0 km/h aus 117

11.3 km/h aus NE

-12.5 C

-10.8 C

-10.6 C

-6.9 C

0 W/m

0.00 mm

12:45

-6.8 C

1034.2 hpa

62 %

6.4 km/h aus 101

11.3 km/h aus ENE

-12.9 C

-10.2 C

-10.0 C

-7.0 C

0 W/m

0.00 mm

12:50

-6.6 C

1034.2 hpa

63 %

4.8 km/h aus 105

11.3 km/h aus NE

-12.4 C

-9.1 C

-8.9 C

-6.8 C

0 W/m

0.00 mm

12:55

-6.7 C

1034.2 hpa

62 %

4.8 km/h aus 117

9.7 km/h aus ESE

-12.8 C

-9.3 C

-9.1 C

-6.9 C

0 W/m

0.00 mm

13:00

-6.4 C

1034.1 hpa

63 %

4.8 km/h aus 117

11.3 km/h aus ENE

-12.3 C

-9.0 C

-8.8 C

-6.7 C

0 W/m

0.00 mm

13:05

-6.3 C

1034.1 hpa

64 %

4.8 km/h aus 115

8.0 km/h aus E

-12.0 C

-8.8 C

-8.6 C

-6.5 C

0 W/m

0.00 mm

13:10

-6.2 C

1034.1 hpa

63 %

3.2 km/h aus 117

9.7 km/h aus ESE

-12.1 C

-7.6 C

-7.3 C

-6.4 C

0 W/m

0.00 mm

13:15

-6.3 C

1034.1 hpa

62 %

3.2 km/h aus 117

8.0 km/h aus E

-12.4 C

-7.7 C

-7.5 C

-6.5 C

0 W/m

0.00 mm

13:20

-6.2 C

1034.1 hpa

62 %

4.8 km/h aus 117

9.7 km/h aus E

-12.3 C

-8.7 C

-8.4 C

-6.4 C

0 W/m

0.00 mm

13:25

-6.1 C

1034.1 hpa

62 %

1.6 km/h aus 117

9.7 km/h aus SE

-12.2 C

-6.3 C

-6.1 C

-6.3 C

0 W/m

0.00 mm

13:30

-6.0 C

1033.8 hpa

60 %

4.8 km/h aus 116

11.3 km/h aus SE

-12.5 C

-8.6 C

-8.3 C

-6.3 C

0 W/m

0.00 mm

13:35

-6.2 C

1033.8 hpa

60 %

6.4 km/h aus 117

16.1 km/h aus NE

-12.7 C

-9.6 C

-9.3 C

-6.4 C

0 W/m

0.00 mm

13:40

-6.1 C

1033.8 hpa

59 %

4.8 km/h aus 117

9.7 km/h aus ENE

-12.8 C

-8.6 C

-8.3 C

-6.3 C

0 W/m

0.00 mm

13:45

-6.3 C

1033.7 hpa

59 %

3.2 km/h aus 116

9.7 km/h aus SSE

-13.0 C

-7.8 C

-7.6 C

-6.6 C

0 W/m

0.00 mm

13:50

-6.2 C

1033.7 hpa

62 %

3.2 km/h aus 116

11.3 km/h aus SE

-12.3 C

-7.6 C

-7.3 C

-6.4 C

0 W/m

0.00 mm

13:55

-6.0 C

1033.7 hpa

61 %

3.2 km/h aus 116

8.0 km/h aus SE

-12.3 C

-7.4 C

-7.2 C

-6.3 C

0 W/m

0.00 mm

14:00

-6.1 C

1033.4 hpa

60 %

3.2 km/h aus 117

11.3 km/h aus NE

-12.6 C

-7.5 C

-7.2 C

-6.3 C

0 W/m

0.00 mm

14:05

-6.2 C

1033.4 hpa

61 %

3.2 km/h aus 117

9.7 km/h aus NE

-12.5 C

-7.6 C

-7.3 C

-6.4 C

0 W/m

0.00 mm

14:10

-6.1 C

1033.4 hpa

61 %

1.6 km/h aus 113

4.8 km/h aus NE

-12.4 C

-6.4 C

-6.1 C

-6.4 C

0 W/m

0.00 mm

14:15

-6.1 C

1033.2 hpa

60 %

1.6 km/h aus 116

6.4 km/h aus NE

-12.6 C

-6.3 C

-6.1 C

-6.3 C

0 W/m

0.00 mm

14:20

-6.0 C

1033.2 hpa

59 %

1.6 km/h aus 117

9.7 km/h aus ESE

-12.7 C

-6.3 C

-6.0 C

-6.3 C

0 W/m

0.00 mm

14:25

-5.9 C

1033.2 hpa

56 %

3.2 km/h aus 116

9.7 km/h aus NNE

-13.3 C

-7.3 C

-7.1 C

-6.2 C

0 W/m

0.00 mm

14:30

-5.9 C

1032.8 hpa

55 %

3.2 km/h aus 117

9.7 km/h aus E

-13.5 C

-7.3 C

-7.1 C

-6.2 C

0 W/m

0.00 mm

14:35

-5.8 C

1032.8 hpa

56 %

3.2 km/h aus 117

6.4 km/h aus E

-13.2 C

-7.3 C

-7.0 C

-6.1 C

0 W/m

0.00 mm

14:40

-5.9 C

1032.8 hpa

55 %

1.6 km/h aus 117

8.0 km/h aus E

-13.5 C

-6.2 C

-5.9 C

-6.2 C

0 W/m

0.00 mm

14:45

-6.0 C

1032.7 hpa

54 %

1.6 km/h aus 117

8.0 km/h aus ESE

-13.8 C

-6.3 C

-6.0 C

-6.3 C

0 W/m

0.00 mm

14:50

-5.9 C

1032.7 hpa

56 %

1.6 km/h aus 117

8.0 km/h aus NE

-13.3 C

-6.2 C

-5.9 C

-6.2 C

0 W/m

0.00 mm

14:55

-6.0 C

1032.7 hpa

58 %

3.2 km/h aus 116

6.4 km/h aus NE

-12.9 C

-7.4 C

-7.2 C

-6.3 C

0 W/m

0.00 mm

15:00

-5.9 C

1032.7 hpa

60 %

4.8 km/h aus 118

11.3 km/h aus NNE

-12.5 C

-8.5 C

-8.2 C

-6.2 C

0 W/m

0.00 mm

15:05

-5.9 C

1032.7 hpa

60 %

8.0 km/h aus 117

17.7 km/h aus NNE

-12.5 C

-10.0 C

-9.7 C

-6.2 C

0 W/m

0.00 mm

15:10

-6.1 C

1032.7 hpa

61 %

6.4 km/h aus 117

14.5 km/h aus NE

-12.4 C

-9.4 C

-9.2 C

-6.3 C

0 W/m

0.00 mm

15:15

-6.1 C

1032.6 hpa

61 %

4.8 km/h aus 117

11.3 km/h aus NE

-12.4 C

-8.7 C

-8.4 C

-6.4 C

0 W/m

0.00 mm

15:20

-6.1 C

1032.6 hpa

62 %

1.6 km/h aus 117

6.4 km/h aus NE

-12.2 C

-6.4 C

-6.1 C

-6.4 C

0 W/m

0.00 mm

15:25

-6.2 C

1032.6 hpa

62 %

3.2 km/h aus 116

9.7 km/h aus NE

-12.3 C

-7.6 C

-7.3 C

-6.4 C

0 W/m

0.00 mm

15:30

-6.3 C

1032.7 hpa

63 %

6.4 km/h aus 117

16.1 km/h aus N

-12.2 C

-9.7 C

-9.4 C

-6.5 C

0 W/m

0.00 mm

15:35

-6.4 C

1032.7 hpa

63 %

6.4 km/h aus 116

14.5 km/h aus NNE

-12.3 C

-9.8 C

-9.6 C

-6.6 C

0 W/m

0.00 mm

15:40

-6.5 C

1032.7 hpa

64 %

8.0 km/h aus 117

16.1 km/h aus NE

-12.2 C

-10.6 C

-10.4 C

-6.7 C

0 W/m

0.00 mm

15:45

-6.7 C

1032.7 hpa

65 %

8.0 km/h aus 117

19.3 km/h aus N

-12.2 C

-10.8 C

-10.6 C

-6.9 C

0 W/m

0.00 mm

15:50

-6.8 C

1032.7 hpa

66 %

8.0 km/h aus 117

17.7 km/h aus NE

-12.1 C

-11.0 C

-10.8 C

-7.1 C

0 W/m

0.00 mm

15:55

-7.0 C

1032.7 hpa

66 %

9.7 km/h aus 117

19.3 km/h aus NNE

-12.3 C

-11.8 C

-11.6 C

-7.2 C

0 W/m

0.00 mm

16:00

-7.2 C

1032.9 hpa

66 %

9.7 km/h aus 117

20.9 km/h aus NE

-12.4 C

-11.9 C

-11.7 C

-7.4 C

0 W/m

0.00 mm

16:05

-7.3 C

1032.9 hpa

66 %

8.0 km/h aus 118

16.1 km/h aus NNE

-12.6 C

-11.5 C

-11.3 C

-7.5 C

0 W/m

0.00 mm

16:10

-7.4 C

1032.9 hpa

66 %

6.4 km/h aus 116

17.7 km/h aus NE

-12.7 C

-11.0 C

-10.8 C

-7.7 C

0 W/m

0.00 mm

16:15

-7.6 C

1032.9 hpa

66 %

4.8 km/h aus 117

16.1 km/h aus NNE

-12.8 C

-10.3 C

-10.1 C

-7.8 C

0 W/m

0.00 mm

16:20

-7.6 C

1032.9 hpa

66 %

4.8 km/h aus 115

11.3 km/h aus NE

-12.9 C

-10.3 C

-10.1 C

-7.8 C

0 W/m

0.00 mm

16:25

-7.7 C

1032.9 hpa

66 %

6.4 km/h aus 117

16.1 km/h aus NNE

-12.9 C

-11.3 C

-11.1 C

-7.9 C

0 W/m

0.00 mm

16:30

-7.8 C

1033.1 hpa

64 %

8.0 km/h aus 117

17.7 km/h aus NE

-13.5 C

-12.2 C

-11.9 C

-8.1 C

0 W/m

0.00 mm

16:35

-7.9 C

1033.1 hpa

63 %

9.7 km/h aus 115

20.9 km/h aus NNE

-13.8 C

-12.9 C

-12.7 C

-8.2 C

0 W/m

0.00 mm

16:40

-8.1 C

1033.1 hpa

63 %

6.4 km/h aus 116

20.9 km/h aus NE

-13.9 C

-11.7 C

-11.5 C

-8.3 C

0 W/m

0.00 mm

16:45

-8.2 C

1033.2 hpa

62 %

4.8 km/h aus 117

11.3 km/h aus NE

-14.2 C

-11.0 C

-10.8 C

-8.4 C

0 W/m

0.00 mm

16:50

-8.3 C

1033.2 hpa

62 %

4.8 km/h aus 116

16.1 km/h aus NE

-14.3 C

-11.2 C

-10.9 C

-8.6 C

0 W/m

0.00 mm

16:55

-8.5 C

1033.2 hpa

61 %

8.0 km/h aus 117

17.7 km/h aus NE

-14.7 C

-12.9 C

-12.7 C

-8.7 C

0 W/m

0.00 mm

17:00

-8.7 C

1033.4 hpa

61 %

9.7 km/h aus 117

19.3 km/h aus NE

-14.8 C

-13.7 C

-13.5 C

-8.9 C

0 W/m

0.00 mm

17:05

-8.8 C

1033.4 hpa

62 %

8.0 km/h aus 116

19.3 km/h aus NE

-14.8 C

-13.3 C

-13.1 C

-9.1 C

0 W/m

0.00 mm

17:10

-8.9 C

1033.4 hpa

62 %

6.4 km/h aus 117

14.5 km/h aus NE

-14.9 C

-12.7 C

-12.5 C

-9.2 C

0 W/m

0.00 mm

17:15

-9.1 C

1033.7 hpa

62 %

6.4 km/h aus 117

14.5 km/h aus NNE

-15.1 C

-12.9 C

-12.7 C

-9.3 C

0 W/m

0.00 mm

17:20

-9.2 C

1033.7 hpa

62 %

6.4 km/h aus 116

16.1 km/h aus NE

-15.2 C

-13.1 C

-12.8 C

-9.4 C

0 W/m

0.00 mm

17:25

-9.3 C

1033.7 hpa

62 %

8.0 km/h aus 117

14.5 km/h aus NE

-15.3 C

-13.9 C

-13.7 C

-9.6 C

0 W/m

0.00 mm

17:30

-9.5 C

1033.9 hpa

62 %

6.4 km/h aus 116

16.1 km/h aus NE

-15.4 C

-13.4 C

-13.2 C

-9.7 C

0 W/m

0.00 mm

17:35

-9.6 C

1033.9 hpa

62 %

6.4 km/h aus 117

16.1 km/h aus NE

-15.5 C

-13.4 C

-13.3 C

-9.8 C

0 W/m

0.00 mm

17:40

-9.7 C

1033.9 hpa

62 %

6.4 km/h aus 117

11.3 km/h aus NE

-15.6 C

-13.6 C

-13.4 C

-9.9 C

0 W/m

0.00 mm

17:45

-9.8 C

1034.2 hpa

63 %

6.4 km/h aus 117

9.7 km/h aus NE

-15.6 C

-13.7 C

-13.6 C

-10.0 C

0 W/m

0.00 mm

17:50

-10.0 C

1034.2 hpa

63 %

4.8 km/h aus 117

12.9 km/h aus NNE

-15.7 C

-12.9 C

-12.8 C

-10.2 C

0 W/m

0.00 mm

17:55

-10.1 C

1034.2 hpa

63 %

4.8 km/h aus 117

11.3 km/h aus NNE

-15.8 C

-13.1 C

-12.9 C

-10.2 C

0 W/m

0.00 mm

18:00

-10.2 C

1034.4 hpa

63 %

6.4 km/h aus 116

14.5 km/h aus NE

-15.9 C

-14.1 C

-13.9 C

-10.3 C

0 W/m

0.00 mm

18:05

-10.2 C

1034.4 hpa

63 %

6.4 km/h aus 117

16.1 km/h aus NE

-15.9 C

-14.2 C

-14.0 C

-10.4 C

0 W/m

0.00 mm

18:10

-10.3 C

1034.4 hpa

63 %

6.4 km/h aus 117

16.1 km/h aus NNE

-16.0 C

-14.2 C

-14.1 C

-10.4 C

0 W/m

0.00 mm

18:15

-10.3 C

1034.7 hpa

62 %

6.4 km/h aus 114

14.5 km/h aus NE

-16.2 C

-14.3 C

-14.1 C

-10.5 C

0 W/m

0.00 mm

18:20

-10.4 C

1034.7 hpa

62 %

6.4 km/h aus 118

14.5 km/h aus NE

-16.3 C

-14.4 C

-14.2 C

-10.6 C

0 W/m

0.00 mm

18:25

-10.4 C

1034.7 hpa

62 %

6.4 km/h aus 117

17.7 km/h aus NE

-16.3 C

-14.4 C

-14.2 C

-10.6 C

0 W/m

0.00 mm

18:30

-10.5 C

1034.8 hpa

61 %

6.4 km/h aus 117

17.7 km/h aus NE

-16.6 C

-14.5 C

-14.3 C

-10.7 C

0 W/m

0.00 mm

18:35

-10.6 C

1034.8 hpa

61 %

8.0 km/h aus 116

17.7 km/h aus NE

-16.6 C

-15.3 C

-15.1 C

-10.7 C

0 W/m

0.00 mm

18:40

-10.6 C

1034.8 hpa

61 %

6.4 km/h aus 115

16.1 km/h aus NE

-16.7 C

-14.6 C

-14.4 C

-10.8 C

0 W/m

0.00 mm

18:45

-10.7 C

1034.9 hpa

61 %

6.4 km/h aus 116

17.7 km/h aus NE

-16.8 C

-14.7 C

-14.6 C

-10.9 C

0 W/m

0.00 mm

18:50

-10.8 C

1034.9 hpa

61 %

6.4 km/h aus 117

16.1 km/h aus NE

-16.8 C

-14.8 C

-14.6 C

-10.9 C

0 W/m

0.00 mm

18:55

-10.8 C

1034.9 hpa

60 %

8.0 km/h aus 116

19.3 km/h aus NE

-17.0 C

-15.6 C

-15.4 C

-10.9 C

0 W/m

0.00 mm

19:00

-10.8 C

1035.1 hpa

59 %

8.0 km/h aus 117

16.1 km/h aus NE

-17.2 C

-15.6 C

-15.4 C

-10.9 C

0 W/m

0.00 mm

19:05

-10.8 C

1035.1 hpa

59 %

8.0 km/h aus 117

16.1 km/h aus NNE

-17.2 C

-15.6 C

-15.4 C

-10.9 C

0 W/m

0.00 mm

19:10

-10.9 C

1035.1 hpa

59 %

6.4 km/h aus 117

14.5 km/h aus NE

-17.3 C

-14.9 C

-14.8 C

-11.1 C

0 W/m

0.00 mm

19:15

-11.0 C

1035.3 hpa

58 %

6.4 km/h aus 117

17.7 km/h aus ENE

-17.7 C

-15.1 C

-14.9 C

-11.2 C

0 W/m

0.00 mm

19:20

-11.0 C

1035.3 hpa

58 %

6.4 km/h aus 116

11.3 km/h aus NE

-17.7 C

-15.1 C

-14.9 C

-11.2 C

0 W/m

0.00 mm

19:25

-11.1 C

1035.3 hpa

58 %

6.4 km/h aus 118

12.9 km/h aus NE

-17.7 C

-15.1 C

-14.9 C

-11.2 C

0 W/m

0.00 mm

19:30

-11.1 C

1035.3 hpa

58 %

4.8 km/h aus 117

11.3 km/h aus NE

-17.8 C

-14.2 C

-14.1 C

-11.3 C

0 W/m

0.00 mm

19:35

-11.3 C

1035.3 hpa

58 %

3.2 km/h aus 115

11.3 km/h aus NE

-17.9 C

-13.1 C

-12.9 C

-11.4 C

0 W/m

0.00 mm

19:40

-11.3 C

1035.3 hpa

59 %

3.2 km/h aus 117

8.0 km/h aus NE

-17.8 C

-13.2 C

-13.1 C

-11.5 C

0 W/m

0.00 mm

19:45

-11.4 C

1035.4 hpa

59 %

3.2 km/h aus 117

6.4 km/h aus NE

-17.9 C

-13.3 C

-13.2 C

-11.6 C

0 W/m

0.00 mm

19:50

-11.6 C

1035.4 hpa

59 %

1.6 km/h aus 117

3.2 km/h aus NE

-18.0 C

-11.7 C

-11.6 C

-11.7 C

0 W/m

0.00 mm

19:55

-11.7 C

1035.4 hpa

60 %

1.6 km/h aus 116

4.8 km/h aus NE

-17.9 C

-11.9 C

-11.7 C

-11.9 C

0 W/m

0.00 mm

20:00

-11.8 C

1035.4 hpa

61 %

0.0 km/h aus 115

3.2 km/h aus NE

-17.8 C

-11.9 C

-11.8 C

-11.9 C

0 W/m

0.00 mm

20:05

-11.9 C

1035.4 hpa

62 %

0.0 km/h aus 117

3.2 km/h aus NE

-17.8 C

-12.1 C

-11.9 C

-12.1 C

0 W/m

0.00 mm

20:10

-12.1 C

1035.4 hpa

63 %

0.0 km/h aus 117

1.6 km/h aus NE

-17.7 C

-12.3 C

-12.1 C

-12.3 C

0 W/m

0.00 mm

20:15

-12.2 C

1035.7 hpa

64 %

0.0 km/h aus 117

1.6 km/h aus NE

-17.6 C

-12.4 C

-12.2 C

-12.4 C

0 W/m

0.00 mm

20:20

-12.3 C

1035.7 hpa

65 %

0.0 km/h aus 117

1.6 km/h aus NE

-17.5 C

-12.4 C

-12.3 C

-12.4 C

0 W/m

0.00 mm

20:25

-12.4 C

1035.7 hpa

66 %

0.0 km/h aus 117

1.6 km/h aus NE

-17.4 C

-12.6 C

-12.4 C

-12.6 C

0 W/m

0.00 mm

20:30

-12.5 C

1035.8 hpa

67 %

0.0 km/h aus 116

1.6 km/h aus NE

-17.4 C

-12.6 C

-12.5 C

-12.6 C

0 W/m

0.00 mm

20:35

-12.6 C

1035.8 hpa

68 %

1.6 km/h aus 117

3.2 km/h aus NE

-17.3 C

-12.7 C

-12.6 C

-12.7 C

0 W/m

0.00 mm

20:40

-12.7 C

1035.8 hpa

69 %

1.6 km/h aus 117

4.8 km/h aus NE

-17.2 C

-12.8 C

-12.7 C

-12.8 C

0 W/m

0.00 mm

20:45

-12.7 C

1035.9 hpa

69 %

0.0 km/h aus 116

3.2 km/h aus NE

-17.2 C

-12.8 C

-12.7 C

-12.8 C

0 W/m

0.00 mm

20:50

-12.8 C

1035.9 hpa

70 %

0.0 km/h aus 117

3.2 km/h aus NE

-17.1 C

-12.9 C

-12.8 C

-12.9 C

0 W/m

0.00 mm

20:55

-12.8 C

1035.9 hpa

70 %

1.6 km/h aus 117

4.8 km/h aus NE

-17.1 C

-12.9 C

-12.8 C

-12.9 C

0 W/m

0.00 mm

21:00

-12.8 C

1035.9 hpa

70 %

0.0 km/h aus 117

4.8 km/h aus NE

-17.2 C

-12.9 C

-12.8 C

-12.9 C

0 W/m

0.00 mm

21:05

-12.9 C

1035.9 hpa

70 %

1.6 km/h aus 116

6.4 km/h aus NE

-17.2 C

-13.0 C

-12.9 C

-13.0 C

0 W/m

0.00 mm

21:10

-12.9 C

1035.9 hpa

70 %

1.6 km/h aus 117

6.4 km/h aus NE

-17.2 C

-13.0 C

-12.9 C

-13.0 C

0 W/m

0.00 mm

21:15

-12.8 C

1036.0 hpa

70 %

3.2 km/h aus 117

8.0 km/h aus NE

-17.2 C

-14.8 C

-14.7 C

-12.9 C

0 W/m

0.00 mm

21:20

-12.7 C

1036.0 hpa

69 %

3.2 km/h aus 117

8.0 km/h aus NE

-17.2 C

-14.7 C

-14.6 C

-12.8 C

0 W/m

0.00 mm

21:25

-12.7 C

1036.0 hpa

68 %

3.2 km/h aus 117

9.7 km/h aus NE

-17.4 C

-14.6 C

-14.5 C

-12.8 C

0 W/m

0.00 mm

21:30

-12.6 C

1036.2 hpa

67 %

3.2 km/h aus 115

8.0 km/h aus NE

-17.4 C

-14.5 C

-14.4 C

-12.7 C

0 W/m

0.00 mm

21:35

-12.5 C

1036.2 hpa

67 %

4.8 km/h aus 117

9.7 km/h aus NE

-17.4 C

-15.7 C

-15.6 C

-12.6 C

0 W/m

0.00 mm

21:40

-12.4 C

1036.2 hpa

66 %

4.8 km/h aus 117

9.7 km/h aus NE

-17.5 C

-15.7 C

-15.6 C

-12.6 C

0 W/m

0.00 mm

21:45

-12.5 C

1036.3 hpa

66 %

1.6 km/h aus 115

8.0 km/h aus NE

-17.5 C

-12.6 C

-12.5 C

-12.6 C

0 W/m

0.00 mm

21:50

-12.6 C

1036.3 hpa

66 %

3.2 km/h aus 117

8.0 km/h aus NE

-17.6 C

-14.5 C

-14.4 C

-12.7 C

0 W/m

0.00 mm

21:55

-12.6 C

1036.3 hpa

66 %

3.2 km/h aus 116

6.4 km/h aus NE

-17.7 C

-14.6 C

-14.4 C

-12.7 C

0 W/m

0.00 mm

22:00

-12.7 C

1036.3 hpa

66 %

3.2 km/h aus 116

8.0 km/h aus NE

-17.7 C

-14.6 C

-14.5 C

-12.8 C

0 W/m

0.00 mm

22:05

-12.7 C

1036.3 hpa

66 %

1.6 km/h aus 117

6.4 km/h aus NE

-17.7 C

-12.8 C

-12.7 C

-12.8 C

0 W/m

0.00 mm

22:10

-12.8 C

1036.3 hpa

66 %

1.6 km/h aus 116

6.4 km/h aus NE

-17.8 C

-12.9 C

-12.8 C

-12.9 C

0 W/m

0.00 mm

22:15

-12.8 C

1036.3 hpa

67 %

3.2 km/h aus 116

8.0 km/h aus NE

-17.7 C

-14.8 C

-14.7 C

-12.9 C

0 W/m

0.00 mm

22:20

-12.8 C

1036.3 hpa

67 %

1.6 km/h aus 116

6.4 km/h aus NE

-17.7 C

-12.9 C

-12.8 C

-12.9 C

0 W/m

0.00 mm

22:25

-13.1 C

1036.3 hpa

67 %

3.2 km/h aus 117

9.7 km/h aus NNE

-17.9 C

-15.1 C

-14.9 C

-13.2 C

0 W/m

0.00 mm

22:30

-13.2 C

1036.4 hpa

68 %

1.6 km/h aus 116

6.4 km/h aus NNE

-17.9 C

-13.3 C

-13.2 C

-13.3 C

0 W/m

0.00 mm

22:35

-13.4 C

1036.4 hpa

69 %

1.6 km/h aus 116

6.4 km/h aus NNE

-17.9 C

-13.5 C

-13.4 C

-13.5 C

0 W/m

0.00 mm

22:40

-13.6 C

1036.4 hpa

70 %

1.6 km/h aus 117

6.4 km/h aus NNE

-17.9 C

-13.7 C

-13.6 C

-13.7 C

0 W/m

0.00 mm

22:45

-13.7 C

1036.4 hpa

71 %

3.2 km/h aus 117

8.0 km/h aus NNE

-17.8 C

-15.7 C

-15.6 C

-13.8 C

0 W/m

0.00 mm

22:50

-13.8 C

1036.4 hpa

71 %

3.2 km/h aus 118

6.4 km/h aus NNE

-17.9 C

-15.8 C

-15.7 C

-13.9 C

0 W/m

0.00 mm

22:55

-13.8 C

1036.4 hpa

72 %

1.6 km/h aus 117

6.4 km/h aus NNE

-17.8 C

-13.9 C

-13.8 C

-13.9 C

0 W/m

0.00 mm

23:00

-14.0 C

1036.7 hpa

72 %

1.6 km/h aus 117

4.8 km/h aus NNE

-18.0 C

-14.1 C

-14.0 C

-14.1 C

0 W/m

0.00 mm

23:05

-14.1 C

1036.7 hpa

72 %

1.6 km/h aus 117

6.4 km/h aus NNE

-18.0 C

-14.2 C

-14.1 C

-14.2 C

0 W/m

0.00 mm

23:10

-14.1 C

1036.7 hpa

73 %

3.2 km/h aus 116

6.4 km/h aus NNE

-17.8 C

-16.1 C

-16.0 C

-14.2 C

0 W/m

0.00 mm

23:15

-14.1 C

1036.6 hpa

73 %

1.6 km/h aus 117

6.4 km/h aus NNE

-17.8 C

-14.2 C

-14.1 C

-14.2 C

0 W/m

0.00 mm

23:20

-14.1 C

1036.6 hpa

73 %

1.6 km/h aus 116

6.4 km/h aus NNE

-17.9 C

-14.2 C

-14.1 C

-14.2 C

0 W/m

0.00 mm

23:25

-14.2 C

1036.6 hpa

73 %

1.6 km/h aus 117

6.4 km/h aus NNE

-18.0 C

-14.3 C

-14.2 C

-14.3 C

0 W/m

0.00 mm

23:30

-14.3 C

1036.6 hpa

73 %

3.2 km/h aus 117

6.4 km/h aus NNE

-18.1 C

-16.4 C

-16.3 C

-14.4 C

0 W/m

0.00 mm

23:35

-14.3 C

1036.6 hpa

74 %

3.2 km/h aus 117

6.4 km/h aus NNE

-18.0 C

-16.4 C

-16.3 C

-14.4 C

0 W/m

0.00 mm

23:40

-14.4 C

1036.6 hpa

74 %

6.4 km/h aus 117

9.7 km/h aus NNE

-18.0 C

-18.8 C

-18.7 C

-14.5 C

0 W/m

0.00 mm

23:45

-14.3 C

1036.8 hpa

74 %

3.2 km/h aus 116

6.4 km/h aus NNE

-18.0 C

-16.4 C

-16.3 C

-14.4 C

0 W/m

0.00 mm

23:50

-14.4 C

1036.8 hpa

74 %

3.2 km/h aus 117

6.4 km/h aus NNE

-18.0 C

-16.5 C

-16.4 C

-14.5 C

0 W/m

0.00 mm

23:55

-14.5 C

1036.8 hpa

74 %

1.6 km/h aus 117

4.8 km/h aus NNE

-18.1 C

-14.6 C

-14.5 C

-14.6 C

0 W/m

0.00 mm